LogID,LogEntryDate,LogEntryTime,LogEntrySeconds,01_LogMark,AFR,STFT,CurrentLTFT,IdleLTFT,CruiseLTFT,Load,O2Sensor2,IPW,AFRMAP,LoadTiming,TimingAdv,KnockSum,RPM,Baro,MAP,Boost,WGDC_Active,MAF,IDC,InVVTtarget,APP,ExVVTtarget,InVVTactual,ExVVTactual,TPS,IAT,WGDCCorr,Speed,Battery,ECT,MAT,MAPCalcs,IMAPCalcs,MAFCalcs,ChosenCalc,Custom
1,2024-06-19,04:57:45.84519,0.30931,0,0,0,-12.5,-12.5,7.6171875,7.8125,,0,,7.8125,-10,0,3335.9375,15.2289627,3.0875808,-12.1413819,0,1.509816,0,10,,0,9.6875,0.3125,14.1176470588235,77,0,48.477,,181.4,96.8,12.5,0,9.375,7.8125,
2,2024-06-19,04:57:45.89204,0.35828,0,18.5,0,-12.5,-12.5,7.6171875,7.8125,,0,,9.375,-10,0,3320.3125,15.2289627,3.0875808,-12.1413819,0,1.509816,0,10,,0,9.6875,0.3125,14.1176470588235,77,0,48.477,,181.4,96.8,12.5,0,6.25,9.375,
3,2024-06-19,04:57:45.95454,0.42571,0,18.5,0,-12.5,-12.5,7.6171875,9.375,,0,,9.375,-10,0,3312.5,15.2289627,3.0875808,-12.1413819,0,1.56864,0,10,,0,9.6875,0.3125,14.1176470588235,77,0,48.477,,181.4,96.8,12.5,0,9.375,7.8125,
4,2024-06-19,04:57:46.00141,0.47082,0,18.5,0,-12.5,-12.5,7.6171875,9.375,,0,,9.375,-10,0,3304.6875,15.2289627,3.0875808,-12.1413819,0,1.56864,0,10,,0,9.53125,0.3125,14.1176470588235,77,0,48.477,,181.4,96.8,12.5,0,7.8125,9.375,
5,2024-06-19,04:57:46.09518,0.5602,0,18.5,0,-12.5,-12.5,7.6171875,9.375,,0,,9.375,-10,0,3296.875,15.2289627,3.1840677,-12.044895,0,1.725504,0,10,,0,9.53125,0.3125,14.1176470588235,77,0,48.477,,181.4,96.8,12.5,0,9.375,9.375,
6,2024-06-19,04:57:46.14204,0.60868,0,18.5,0,-12.5,-12.5,7.6171875,9.375,,0,,9.375,-10,0,3289.0625,15.2289627,3.1840677,-12.044895,0,1.725504,0,10,,0,9.6875,0.3125,14.1176470588235,77,0,48.477,,181.4,98.6,12.5,0,10.9375,9.375,
7,2024-06-19,04:57:46.23580,0.69877,0,0,0,-12.5,-12.5,7.6171875,9.375,,0,,9.375,-10,0,3281.25,15.2289627,3.1840677,-12.044895,0,1.66668,0,10,,0,9.6875,0.3125,14.1176470588235,77,0,48.477,,181.4,98.6,12.5,0,9.375,9.375,
8,2024-06-19,04:57:46.26707,0.73229,0,18.5,0,-12.5,-12.5,7.6171875,9.375,,0,,9.375,-10,0,3281.25,15.2289627,3.1840677,-12.044895,0,1.66668,0,10,,0,9.53125,0.3125,14.1176470588235,77,0,48.477,,181.4,98.6,12.5,0,7.8125,9.375,
9,2024-06-19,04:57:46.28268,0.75122,0,18.5,0,-12.5,-12.5,7.6171875,9.375,,0,,9.375,-10,0,3281.25,15.2289627,3.1840677,-12.044895,0,1.66668,0,10,,0,9.53125,0.3125,14.1176470588235,77,0,48.477,,181.4,98.6,12.5,0,7.8125,9.375,
10,2024-06-19,04:57:46.32955,0.79642,0,18.5,0,-12.5,-12.5,7.6171875,9.375,,0,,9.375,-10,0,3273.4375,15.2289627,3.1840677,-12.044895,0,1.66668,0,10,,0,9.6875,0.3125,14.1176470588235,77,0,48.477,,181.4,98.6,12.5,0,9.375,9.375,
11,2024-06-19,04:57:46.36079,0.83391,0,18.5,0,-12.5,-12.5,7.6171875,9.375,,0,,9.375,-10,0,3273.4375,15.2289627,3.1840677,-12.044895,0,1.588248,0,10,,0,9.6875,0.3125,14.1176470588235,77,0,48.477,,181.4,98.6,12.5,0,10.9375,9.375,
12,2024-06-19,04:57:46.40767,0.86747,0,18.5,0,-12.5,-12.5,7.6171875,9.375,,0,,9.375,-10,0,3265.625,15.2289627,3.1840677,-12.044895,0,1.588248,0,10,,0,9.6875,0.3125,14.1176470588235,77,0,48.477,,181.4,98.6,12.5,0,9.375,9.375,
13,2024-06-19,04:57:46.43891,0.9048,0,18.5,0,-12.5,-12.5,7.6171875,9.375,,0,,9.375,-10,0,3265.625,15.2289627,3.1840677,-12.044895,0,1.549032,0,10,,0,9.6875,0.3125,14.1176470588235,77,0,48.477,,181.4,98.6,12.5,0,10.9375,9.375,
14,2024-06-19,04:57:46.47016,0.9332,0,18.5,0,-12.5,-12.5,7.6171875,9.375,,0,,9.375,-10,0,3265.625,15.2289627,3.1840677,-12.044895,0,1.549032,0,10,,0,9.53125,0.3125,14.1176470588235,77,0,48.477,,181.4,98.6,12.5,0,6.25,9.375,
15,2024-06-19,04:57:46.53266,0.9998,0,18.5,0,-12.5,-12.5,7.6171875,9.375,,0,,9.375,-10,0,3257.8125,15.2289627,3.1840677,-12.044895,0,1.607856,0,10,,0,9.53125,0.3125,14.1176470588235,77,0,47.234,,181.4,98.6,12.5,0,7.8125,7.8125,
16,2024-06-19,04:57:46.61079,1.06998,0,18.5,0,-12.5,-12.5,7.6171875,7.8125,,0,,9.375,-10,0,3250,15.2289627,3.1840677,-12.044895,0,1.607856,0,10,,0,9.6875,0.3125,14.1176470588235,77,0,47.234,,181.4,98.6,10.9375,0,9.375,7.8125,
17,2024-06-19,04:57:46.68891,1.16077,0,18.5,0,-12.5,-12.5,7.6171875,9.375,,0,,7.8125,-10,0,3242.1875,15.2289627,3.1840677,-12.044895,0,1.627464,0,10,,0,9.6875,0.3125,14.1176470588235,77,0,47.234,,181.4,98.6,10.9375,0,14.0625,9.375,
18,2024-06-19,04:57:46.75145,1.21113,0,18.5,0,-12.5,-12.5,7.6171875,9.375,,0,,9.375,-10,0,3234.375,15.2289627,3.1840677,-12.044895,0,1.627464,0,10,,0,9.6875,0.3125,14.1176470588235,77,0,47.234,,181.4,98.6,10.9375,0,12.5,9.375,
19,2024-06-19,04:57:46.81392,1.27507,0,18.5,0,-12.5,-12.5,7.6171875,9.375,,0,,9.375,-10,0,3226.5625,15.2289627,3.1840677,-12.044895,0,1.647072,0,10,,0,9.6875,0.3125,14.1176470588235,77,0,47.234,,181.4,98.6,12.5,0,9.375,9.375,
20,2024-06-19,04:57:46.84517,1.31812,0,18.5,0,-12.5,-12.5,7.6171875,9.375,,0,,9.375,-10,0,3218.75,15.2289627,3.1840677,-12.044895,0,1.647072,0,10,,0,9.6875,0.3125,14.1176470588235,77,0,47.234,,181.4,98.6,12.5,0,9.375,9.375,
21,2024-06-19,04:57:46.89204,1.36092,0,18.5,0,-12.5,-12.5,7.6171875,9.375,,0,,9.375,-10,0,3218.75,15.2289627,3.1840677,-12.044895,0,1.686288,0,10,,0,9.6875,0.3125,14.1176470588235,77,0,47.234,,181.4,98.6,12.5,0,7.8125,9.375,
22,2024-06-19,04:57:46.93891,1.41132,0,18.5,0,-12.5,-12.5,7.6171875,9.375,,0,,9.375,-10,0,3203.125,15.2289627,3.1840677,-12.044895,0,1.686288,0,10,,0,9.6875,0.46875,14.1176470588235,77,0,47.234,,181.4,98.6,10.9375,0,9.375,9.375,
23,2024-06-19,04:57:47.00142,1.47143,0,18.5,0,-12.5,-12.5,7.6171875,9.375,,0,,9.375,-10,0,3171.875,15.2289627,3.1840677,-12.044895,0,1.607856,0,10,,0,9.6875,0.46875,14.1176470588235,77,0,47.234,,181.4,98.6,10.9375,0,9.375,9.375,
24,2024-06-19,04:57:47.06391,1.52854,0,18.5,0,-12.5,-12.5,7.6171875,9.375,,0,,9.375,-10,0,3062.5,15.2289627,3.1840677,-12.044895,0,1.607856,0,10,,0,9.84375,0.46875,14.1176470588235,77,0,47.234,,181.4,98.6,10.9375,0,7.8125,9.375,
25,2024-06-19,04:57:47.12641,1.58753,0,18.5,0,-12.5,-12.5,7.6171875,9.375,,0,,9.375,-10,0,2984.375,15.2289627,3.1840677,-12.044895,0,1.588248,0,10,,0,9.84375,0.46875,14.1176470588235,77,0,47.234,,181.4,98.6,10.9375,0,9.375,9.375,
26,2024-06-19,04:57:47.17328,1.63626,0,18.5,0,-12.5,-12.5,7.6171875,9.375,,0,,9.375,-10,0,2914.0625,15.2289627,3.1840677,-12.044895,0,1.588248,0,10,,0,9.84375,0.3125,13.7254901960784,77,0,47.234,,181.4,98.6,9.375,0,9.375,9.375,
27,2024-06-19,04:57:47.25142,1.7135,0,18.5,0,-12.5,-12.5,7.6171875,9.375,,0,,9.375,-10,0,2851.5625,15.2289627,3.0875808,-12.1413819,0,1.549032,0,10,,0,9.84375,0.3125,13.7254901960784,77,0,45.991,,181.4,98.6,9.375,0,10.9375,9.375,
28,2024-06-19,04:57:47.29829,1.76161,0,18.5,0,-12.5,-12.5,7.6171875,9.375,,0,,9.375,-10,0,2718.75,15.2289627,3.0875808,-12.1413819,0,1.549032,0,10,,0,9.84375,0.3125,13.7254901960784,77,0,45.991,,181.4,98.6,9.375,0,9.375,9.375,
29,2024-06-19,04:57:47.36078,1.82148,0,18.5,0,-12.5,-12.5,7.6171875,9.375,,0,,9.375,-10,0,2671.875,15.2289627,3.0875808,-12.1413819,0,1.56864,0,10,,0,9.84375,0.3125,13.3333333333333,77,0,45.991,,181.4,98.6,9.375,0,10.9375,9.375,
30,2024-06-19,04:57:47.40766,1.86973,0,18.5,0,-12.5,-12.5,7.6171875,9.375,,0,,9.375,-10,0,2585.9375,15.2289627,3.0875808,-12.1413819,0,1.56864,0,10,,0,10,0.3125,13.3333333333333,77,0,45.991,,181.4,98.6,9.375,0,12.5,9.375,
31,2024-06-19,04:57:47.45454,1.9267,0,18.5,0,-12.5,-12.5,7.6171875,9.375,,0,,9.375,-10,0,2523.4375,15.2289627,3.0875808,-12.1413819,0,1.549032,0,10,,0,10,0.3125,13.3333333333333,77,0,45.991,,181.4,98.6,9.375,0,9.375,9.375,
32,2024-06-19,04:57:47.50143,1.97534,0,18.5,0,-12.5,-12.5,7.6171875,9.375,,0,,9.375,-10,0,2445.3125,15.2289627,3.0875808,-12.1413819,0,1.549032,0,10,,0,10,0.15625,13.3333333333333,77,0,45.991,,181.4,98.6,10.9375,0,10.9375,9.375,
33,2024-06-19,04:57:47.57954,2.05285,0,18.5,0,-12.5,-12.5,7.6171875,9.375,,0,,9.375,-10,0,2382.8125,15.2289627,3.1840677,-12.044895,0,1.56864,0,10,,0,10,0.15625,13.3333333333333,77,0,45.991,,181.4,98.6,10.9375,0,9.375,9.375,
34,2024-06-19,04:57:47.65772,2.13134,0,18.5,0,-12.5,-12.5,7.6171875,10.9375,,0,,10.9375,-10,0,2257.8125,15.2289627,3.1840677,-12.044895,0,1.56864,0,10,,0,9.84375,0.15625,13.3333333333333,77,0,45.991,,181.4,98.6,10.9375,0,12.5,10.9375,
35,2024-06-19,04:57:47.72016,2.18825,0,18.5,0,-12.5,-12.5,7.6171875,10.9375,,0,,10.9375,-10,0,2187.5,15.2289627,3.1840677,-12.044895,0,1.529424,0,10,,0,9.84375,0.15625,12.5490196078431,77,0,45.991,,181.4,98.6,10.9375,0,7.8125,9.375,
36,2024-06-19,04:57:47.81392,2.27521,0,18.5,0,-12.5,-12.5,7.6171875,9.375,,0,,9.375,-10,0,2078.125,15.2289627,3.1840677,-12.044895,0,1.529424,0,10,,0,10,0.15625,12.5490196078431,77,0,45.991,,181.4,98.6,12.5,0,7.8125,9.375,
37,2024-06-19,04:57:47.87641,2.33831,0,18.5,0,-12.5,-12.5,7.6171875,9.375,,0,,9.375,-10,0,2046.875,15.2289627,3.1840677,-12.044895,0,1.411776,0,10,,0,10,0.15625,12.5490196078431,77,0,45.991,,181.4,98.6,10.9375,0,9.375,9.375,
38,2024-06-19,04:57:47.92329,2.38735,0,18.5,0,-12.5,-12.5,7.6171875,9.375,,0,,9.375,-10,0,2140.625,15.2289627,3.1840677,-12.044895,0,1.411776,0,10,,0,9.84375,0.3125,12.9411764705882,77,0,45.991,,181.4,98.6,10.9375,0,12.5,9.375,
39,2024-06-19,04:57:47.98579,2.45197,0,18.5,0,-12.5,-12.5,7.6171875,9.375,,0,,9.375,-10,0,2234.375,15.2289627,3.1840677,-12.044895,0,1.4706,0,10,,0,9.84375,0.3125,12.9411764705882,77,0,45.991,,181.4,98.6,10.9375,0,6.25,9.375,
40,2024-06-19,04:57:48.03266,2.49936,0,18.5,0,-12.5,-12.5,7.6171875,9.375,,0,,9.375,-10,0,2328.125,15.2289627,3.1840677,-12.044895,0,1.4706,0,10,,0,9.84375,0.15625,12.9411764705882,77,0,45.991,,181.4,98.6,10.9375,0,6.25,9.375,
41,2024-06-19,04:57:48.09516,2.55848,0,18.5,0,-12.5,-12.5,7.6171875,9.375,,0,,9.375,-10,0,2390.625,15.2289627,3.1840677,-12.044895,0,1.509816,0,10,,0,9.84375,0.15625,13.3333333333333,77,0,45.991,,181.4,98.6,9.375,0,7.8125,9.375,
42,2024-06-19,04:57:48.12642,2.59946,0,18.5,0,-12.5,-12.5,7.6171875,9.375,,0,,9.375,-10,0,2484.375,15.2289627,3.1840677,-12.044895,0,1.509816,0,10,,0,9.84375,0.15625,13.3333333333333,77,0,45.991,,181.4,98.6,9.375,0,9.375,9.375,
43,2024-06-19,04:57:48.22016,2.67935,0,18.5,0,-12.5,-12.5,7.6171875,9.375,,0,,9.375,-10,0,2578.125,15.2289627,3.0875808,-12.1413819,0,1.56864,0,10,,0,9.84375,0.15625,13.3333333333333,77,0,45.991,,181.4,98.6,9.375,0,7.8125,7.8125,
44,2024-06-19,04:57:48.26704,2.72845,0,18.5,0,-12.5,-12.5,7.6171875,9.375,,0,,9.375,-10,0,2671.875,15.2289627,3.0875808,-12.1413819,0,1.56864,0,10,,0,9.84375,0.3125,13.7254901960784,77,0,45.991,,181.4,98.6,9.375,0,10.9375,9.375,
45,2024-06-19,04:57:48.31391,2.78658,0,18.5,0,-12.5,-12.5,7.6171875,9.375,,0,,9.375,-10,0,2734.375,15.2289627,3.0875808,-12.1413819,0,1.588248,0,10,,0,9.84375,0.3125,13.7254901960784,77,0,45.991,,181.4,98.6,9.375,0,10.9375,9.375,
46,2024-06-19,04:57:48.37641,2.83692,0,18.5,0,-12.5,-12.5,7.6171875,9.375,,0,,9.375,-10,0,2820.3125,15.2289627,3.0875808,-12.1413819,0,1.588248,0,10,,0,10,0.3125,13.7254901960784,77,0,45.991,,181.4,98.6,9.375,0,10.9375,9.375,
47,2024-06-19,04:57:48.42337,2.89513,0,18.5,0,-12.5,-12.5,7.6171875,9.375,,0,,9.375,-10,0,2890.625,15.2289627,3.0875808,-12.1413819,0,1.66668,0,10,,0,10,0.3125,14.1176470588235,77,0,45.991,,181.4,98.6,9.375,0,9.375,9.375,
48,2024-06-19,04:57:48.48579,2.9444,0,18.5,0,-12.5,-12.5,7.6171875,9.375,,0,,9.375,-10,0,2953.125,15.2289627,3.0875808,-12.1413819,0,1.66668,0,10,,0,9.84375,0.3125,14.1176470588235,77,0,45.991,,179.6,98.6,10.9375,0,9.375,9.375,
49,2024-06-19,04:57:48.53273,3.00118,0,18.5,0,-12.5,-12.5,7.6171875,9.375,,0,,9.375,-10,0,3023.4375,15.2289627,3.0875808,-12.1413819,0,1.705896,0,10,,0,9.84375,0.3125,14.1176470588235,77,0,45.991,,179.6,98.6,10.9375,0,9.375,9.375,
50,2024-06-19,04:57:48.57954,3.04759,0,18.5,0,-12.5,-12.5,7.6171875,9.375,,0,,9.375,-10,0,3085.9375,15.2289627,3.0875808,-12.1413819,0,1.705896,0,10,,0,9.6875,0.3125,14.1176470588235,77,0,45.991,,179.6,98.6,10.9375,0,9.375,9.375,
51,2024-06-19,04:57:48.65766,3.12234,0,18.5,0,-12.5,-12.5,7.6171875,9.375,,0,,9.375,-10,0,3140.625,15.2289627,3.1840677,-12.044895,0,1.686288,0,10,,0,9.6875,0.3125,14.1176470588235,77,0,43.505,,179.6,98.6,10.9375,0,10.9375,10.9375,
52,2024-06-19,04:57:48.72016,3.1846,0,18.5,0,-12.5,-12.5,7.6171875,10.9375,,0,,10.9375,-10,0,3257.8125,15.2289627,3.1840677,-12.044895,0,1.686288,0,10,,0,9.6875,0.3125,14.1176470588235,77,0,43.505,,179.6,98.6,12.5,0,7.8125,9.375,
53,2024-06-19,04:57:48.79829,3.26724,0,18.5,0,-12.5,-12.5,7.6171875,9.375,,0,,9.375,-10,0,3320.3125,15.2289627,3.1840677,-12.044895,0,1.647072,0,10,,0,9.6875,0.3125,14.1176470588235,77,0,43.505,,179.6,98.6,12.5,0,7.8125,9.375,
54,2024-06-19,04:57:48.84517,3.31574,0,18.5,0,-12.5,-12.5,7.6171875,9.375,,0,,9.375,-10,0,3414.0625,15.2289627,3.1840677,-12.044895,0,1.647072,0,10,,0,9.53125,0.15625,14.1176470588235,77,0,43.505,,179.6,98.6,12.5,0,9.375,9.375,
55,2024-06-19,04:57:48.92329,3.39552,0,18.5,0,-12.5,-12.5,7.6171875,9.375,,0,,9.375,-10,0,3476.5625,15.2289627,3.0875808,-12.1413819,0,1.56864,0,10,,0,9.53125,0.15625,14.1176470588235,77,0,43.505,,179.6,98.6,12.5,0,9.375,9.375,
56,2024-06-19,04:57:48.98579,3.45575,0,18.5,0,-12.5,-12.5,7.6171875,9.375,,0,,9.375,3,0,3562.5,15.2289627,3.0875808,-12.1413819,0,1.56864,0,10,,0,9.6875,0,14.5098039215686,77,0,43.505,,179.6,98.6,12.5,0,9.375,7.8125,
57,2024-06-19,04:57:49.07954,3.54331,0,18.5,0,-12.5,-12.5,7.6171875,7.8125,,0,,9.375,6,0,3656.25,15.2289627,3.0875808,-12.1413819,0,1.647072,0,10,,0,9.6875,0,14.5098039215686,77,0,43.505,,179.6,98.6,12.5,0,9.375,9.375,
58,2024-06-19,04:57:49.14203,3.6127,0,18.5,0,-12.5,-12.5,7.6171875,9.375,,0,,9.375,10,0,3742.1875,15.2289627,3.0875808,-12.1413819,0,1.647072,0,10,,0,9.84375,-0.15625,14.5098039215686,77,0,43.505,,179.6,98.6,14.0625,0,10.9375,9.375,
59,2024-06-19,04:57:49.20454,3.67766,0,18.5,0,-12.5,-12.5,7.6171875,9.375,,0,,9.375,12,0,3789.0625,15.2289627,3.0875808,-12.1413819,0,1.66668,0,10,,0,9.84375,-0.15625,14.9019607843137,77,0,43.505,,179.6,98.6,14.0625,0,12.5,10.9375,
60,2024-06-19,04:57:49.29828,3.76005,0,18.5,0,-12.5,-12.5,7.6171875,10.9375,,0,,10.9375,16,0,3835.9375,15.2289627,3.0875808,-12.1413819,0,1.66668,0,10,,0,10,0,14.9019607843137,77,0,43.505,,179.6,98.6,14.0625,0,10.9375,10.9375,
61,2024-06-19,04:57:49.37641,3.83772,0,18.5,0,-12.5,-12.5,7.6171875,10.9375,,0,,10.9375,18,0,3820.3125,15.2289627,3.1840677,-12.044895,0,1.705896,0,10,,0,10,0,14.9019607843137,77,0,43.505,,179.6,98.6,14.0625,0,12.5,10.9375,
62,2024-06-19,04:57:49.42329,3.89279,0,18.5,0,-12.5,-12.5,7.6171875,10.9375,,0,,10.9375,22,0,3804.6875,15.2289627,3.1840677,-12.044895,0,1.705896,0,10,,0,9.84375,0,14.9019607843137,77,0,43.505,,179.6,98.6,14.0625,0,10.9375,10.9375,
63,2024-06-19,04:57:49.45454,3.92832,0,18.5,0,-12.5,-12.5,7.6171875,10.9375,,0,,10.9375,24,0,3804.6875,15.2289627,3.1840677,-12.044895,0,1.705896,0,10,,0,9.84375,0,14.9019607843137,77,0,42.262,,179.6,98.6,14.0625,0,10.9375,10.9375,
64,2024-06-19,04:57:49.51703,3.9845,0,18.5,0,-12.5,-12.5,7.6171875,10.9375,,0,,10.9375,26,0,3789.0625,15.2289627,3.1840677,-12.044895,0,1.705896,0,10,,0,10,-0.15625,14.9019607843137,77,0,42.262,,179.6,98.6,14.0625,0,9.375,10.9375,
65,2024-06-19,04:57:49.59516,4.06333,0,18.5,0,-12.5,-12.5,7.6171875,10.9375,,0,,10.9375,28,0,3789.0625,15.2289627,3.0875808,-12.1413819,0,1.705896,0,10,,0,10,-0.15625,14.9019607843137,77,0,42.262,,179.6,98.6,14.0625,0,9.375,10.9375,
66,2024-06-19,04:57:49.64203,4.11283,0,18.5,0,-12.5,-12.5,7.6171875,10.9375,,0,,10.9375,31,0,3789.0625,15.2289627,3.0875808,-12.1413819,0,1.705896,0,10,,0,9.84375,0,14.9019607843137,77,0,42.262,,179.6,98.6,14.0625,0,10.9375,10.9375,
67,2024-06-19,04:57:49.73578,4.19441,0,18.5,0,-12.5,-12.5,7.6171875,10.9375,,0,,10.9375,33,0,3773.4375,15.2289627,3.1840677,-12.044895,0,1.745112,0,10,,0,9.84375,0,14.9019607843137,77,0,42.262,,179.6,98.6,14.0625,0,9.375,10.9375,
68,2024-06-19,04:57:49.78266,4.25233,0,18.5,0,-12.5,-12.5,7.6171875,10.9375,,0,,10.9375,37,0,3765.625,15.2289627,3.1840677,-12.044895,0,1.745112,0,10,,0,9.84375,-0.15625,14.9019607843137,77,0,42.262,,179.6,98.6,14.0625,0,10.9375,10.9375,
69,2024-06-19,04:57:49.86079,4.32898,0,18.5,0,-12.5,-12.5,7.6171875,10.9375,,0,,10.9375,39,0,3765.625,15.2289627,3.0875808,-12.1413819,0,1.725504,0,10,,0,9.84375,-0.15625,14.9019607843137,77,0,42.262,,179.6,98.6,14.0625,0,9.375,10.9375,
70,2024-06-19,04:57:49.90767,4.38155,0,18.5,0,-12.5,-12.5,7.6171875,10.9375,,0,,10.9375,40,0,3750,15.2289627,3.0875808,-12.1413819,0,1.725504,0,10,,0,9.84375,0,14.9019607843137,77,0,42.262,,179.6,98.6,14.0625,0,12.5,10.9375,
71,2024-06-19,04:57:49.97016,4.43829,0,18.5,0,-12.5,-12.5,7.6171875,10.9375,,0,,10.9375,40,0,3734.375,15.2289627,3.0875808,-12.1413819,0,1.647072,0,10,,0,9.84375,0,14.9019607843137,77,0,42.262,,179.6,98.6,14.0625,0,10.9375,10.9375,
72,2024-06-19,04:57:50.01704,4.48375,0,18.5,0,-12.5,-12.5,7.6171875,10.9375,,0,,10.9375,40,0,3726.5625,15.2289627,3.0875808,-12.1413819,0,1.647072,0,10,,0,9.84375,-0.15625,14.9019607843137,77,0,42.262,,179.6,98.6,14.0625,0,7.8125,9.375,
73,2024-06-19,04:57:50.07954,4.55268,0,18.5,0,-12.5,-12.5,7.6171875,9.375,,0,,10.9375,40,0,3710.9375,15.2289627,3.0875808,-12.1413819,0,1.66668,0,10,,0,9.84375,-0.15625,14.9019607843137,77,0,42.262,,179.6,98.6,14.0625,0,10.9375,10.9375,
74,2024-06-19,04:57:50.12641,4.6004,0,18.5,0,-12.5,-12.5,7.6171875,10.9375,,0,,10.9375,40,0,3710.9375,15.2289627,3.0875808,-12.1413819,0,1.66668,0,10,,0,9.84375,0,14.9019607843137,77,0,42.262,,179.6,98.6,14.0625,0,7.8125,10.9375,
75,2024-06-19,04:57:50.18891,4.65227,0,18.5,0,-12.5,-12.5,7.6171875,10.9375,,0,,10.9375,40,0,3703.125,15.2289627,3.0875808,-12.1413819,0,1.647072,0,10,,0,9.84375,0,14.9019607843137,77,0,41.019,,179.6,98.6,14.0625,0,9.375,10.9375,
76,2024-06-19,04:57:50.23579,4.69606,0,18.5,0,-12.5,-12.5,7.6171875,10.9375,,0,,9.375,40,0,3695.3125,15.2289627,3.0875808,-12.1413819,0,1.647072,0,10,,0,9.84375,0,14.9019607843137,77,0,41.019,,179.6,98.6,14.0625,0,10.9375,10.9375,
77,2024-06-19,04:57:50.28266,4.74842,0,18.5,0,-12.5,-12.5,7.6171875,9.375,,0,,9.375,40,0,3695.3125,15.2289627,3.0875808,-12.1413819,0,1.686288,0,10,,0,9.84375,0,14.9019607843137,77,0,41.019,,179.6,98.6,14.0625,0,9.375,9.375,
78,2024-06-19,04:57:50.32954,4.79673,0,18.5,0,-12.5,-12.5,7.6171875,9.375,,0,,9.375,40,0,3687.5,15.2289627,3.0875808,-12.1413819,0,1.686288,0,10,,0,9.6875,-0.15625,14.9019607843137,77,0,41.019,,179.6,98.6,14.0625,0,10.9375,9.375,
79,2024-06-19,04:57:50.40767,4.87473,0,18.5,0,-12.5,-12.5,7.6171875,10.9375,,0,,10.9375,40,0,3671.875,15.2289627,3.0875808,-12.1413819,0,1.66668,0,10,,0,9.6875,-0.15625,14.9019607843137,77,0,41.019,,179.6,98.6,14.0625,0,7.8125,9.375,
80,2024-06-19,04:57:50.47017,4.93847,0,18.5,0,-12.5,-12.5,7.6171875,9.375,,0,,9.375,40,0,3671.875,15.2289627,3.0875808,-12.1413819,0,1.66668,0,10,,0,9.84375,0,14.5098039215686,77,0,41.019,,179.6,98.6,12.5,0,9.375,9.375,
81,2024-06-19,04:57:50.51704,4.9896,0,18.5,0,-12.5,-12.5,7.6171875,9.375,,0,,9.375,40,0,3664.0625,15.2289627,3.0875808,-12.1413819,0,1.627464,0,10,,0,9.84375,0,14.5098039215686,77,0,41.019,,179.6,98.6,12.5,0,12.5,9.375,
82,2024-06-19,04:57:50.56391,5.02438,0,18.5,0,-12.5,-12.5,7.6171875,9.375,,0,,9.375,40,0,3656.25,15.2289627,3.0875808,-12.1413819,0,1.627464,0,10,,0,9.84375,0,14.5098039215686,77,0,41.019,,179.6,98.6,12.5,0,12.5,9.375,
83,2024-06-19,04:57:50.62642,5.09044,0,18.5,0,-12.5,-12.5,7.6171875,10.9375,,0,,10.9375,40,0,3640.625,15.2289627,3.0875808,-12.1413819,0,1.627464,0,10,,0,9.84375,0,14.5098039215686,77,0,41.019,,179.6,98.6,12.5,0,7.8125,9.375,
84,2024-06-19,04:57:50.67333,5.14422,0,18.5,0,-12.5,-12.5,7.6171875,9.375,,0,,9.375,40,0,3640.625,15.2289627,3.0875808,-12.1413819,0,1.627464,0,10,,0,9.84375,0,14.5098039215686,77,0,41.019,,179.6,98.6,12.5,0,9.375,9.375,
85,2024-06-19,04:57:50.73585,5.20148,0,18.5,0,-12.5,-12.5,7.6171875,9.375,,0,,9.375,40,0,3632.8125,15.2289627,3.0875808,-12.1413819,0,1.607856,0,10,,0,9.84375,0,14.5098039215686,77,0,41.019,,179.6,98.6,12.5,0,9.375,9.375,
86,2024-06-19,04:57:50.78270,5.24637,0,18.5,0,-12.5,-12.5,7.6171875,9.375,,0,,9.375,40,0,3625,15.2289627,3.0875808,-12.1413819,0,1.607856,0,10,,0,9.6875,0,14.5098039215686,77,0,41.019,,179.6,98.6,12.5,0,7.8125,9.375,
87,2024-06-19,04:57:50.82954,5.30063,0,18.5,0,-12.5,-12.5,7.6171875,9.375,,0,,9.375,40,0,3617.1875,15.2289627,3.0875808,-12.1413819,0,1.627464,0,10,,0,9.6875,0,14.5098039215686,77,0,39.776,,179.6,98.6,12.5,0,9.375,9.375,
88,2024-06-19,04:57:50.89204,5.35134,0,18.5,0,-12.5,-12.5,7.6171875,9.375,,0,,9.375,40,0,3609.375,15.2289627,3.0875808,-12.1413819,0,1.627464,0,10,,0,9.53125,0,14.5098039215686,77,0,39.776,,179.6,98.6,12.5,0,7.8125,9.375,
89,2024-06-19,04:57:50.93896,5.40393,0,18.5,0,-12.5,-12.5,7.6171875,9.375,,0,,9.375,40,0,3601.5625,15.2289627,3.0875808,-12.1413819,0,1.588248,0,10,,0,9.53125,0,14.5098039215686,77,0,39.776,,179.6,98.6,12.5,0,9.375,9.375,
90,2024-06-19,04:57:50.97025,5.43387,0,18.5,0,-12.5,-12.5,7.6171875,9.375,,0,,9.375,40,0,3601.5625,15.2289627,3.0875808,-12.1413819,0,1.588248,0,10,,0,9.53125,-0.15625,14.5098039215686,77,0,39.776,,179.6,98.6,12.5,0,7.8125,9.375,
91,2024-06-19,04:57:51.03269,5.50366,0,18.5,0,-12.5,-12.5,7.6171875,9.375,,0,,9.375,40,0,3593.75,15.2289627,2.9910939,-12.2378688,0,1.66668,0,10,,0,9.53125,-0.15625,14.5098039215686,77,0,39.776,,179.6,98.6,12.5,0,7.8125,9.375,
92,2024-06-19,04:57:51.07953,5.54884,0,18.5,0,-12.5,-12.5,7.6171875,9.375,,0,,9.375,40,0,3585.9375,15.2289627,2.9910939,-12.2378688,0,1.66668,0,10,,0,9.53125,-0.15625,14.5098039215686,77,0,39.776,,179.6,98.6,12.5,0,9.375,7.8125,
93,2024-06-19,04:57:51.14208,5.61566,0,18.5,0,-12.5,-12.5,7.6171875,9.375,,0,,9.375,40,0,3578.125,15.2289627,3.0875808,-12.1413819,0,1.686288,0,10,,0,9.53125,-0.15625,14.5098039215686,77,0,39.776,,179.6,98.6,12.5,0,9.375,9.375,
94,2024-06-19,04:57:51.18891,5.66185,0,18.5,0,-12.5,-12.5,7.6171875,9.375,,0,,9.375,40,0,3562.5,15.2289627,3.0875808,-12.1413819,0,1.686288,0,10,,0,9.53125,0,14.5098039215686,77,0,39.776,,179.6,98.6,12.5,0,7.8125,9.375,
95,2024-06-19,04:57:51.25141,5.71191,0,18.5,0,-12.5,-12.5,7.6171875,9.375,,0,,9.375,40,0,3554.6875,15.2289627,3.0875808,-12.1413819,0,1.66668,0,10,,0,9.53125,0,14.5098039215686,77,0,39.776,,179.6,98.6,12.5,0,10.9375,9.375,
96,2024-06-19,04:57:51.28266,5.74979,0,18.5,0,-12.5,-12.5,7.6171875,9.375,,0,,9.375,40,0,3539.0625,15.2289627,3.0875808,-12.1413819,0,1.66668,0,10,,0,9.53125,0,14.5098039215686,77,0,39.776,,179.6,98.6,12.5,0,9.375,9.375,
97,2024-06-19,04:57:51.36082,5.83163,0,18.5,0,-12.5,-12.5,7.6171875,9.375,,0,,9.375,40,0,3546.875,15.2289627,2.9910939,-12.2378688,0,1.66668,0,10,,0,9.53125,0,14.5098039215686,77,0,39.776,,179.6,98.6,12.5,0,12.5,9.375,
98,2024-06-19,04:57:51.40767,5.86924,0,18.5,0,-12.5,-12.5,7.6171875,9.375,,0,,9.375,40,0,3531.25,15.2289627,2.9910939,-12.2378688,0,1.66668,0,10,,0,9.53125,0,14.5098039215686,77,0,39.776,,179.6,98.6,12.5,0,12.5,9.375,
99,2024-06-19,04:57:51.47022,5.93832,0,18.5,0,-12.5,-12.5,7.6171875,9.375,,0,,9.375,40,0,3523.4375,15.2289627,3.0875808,-12.1413819,0,1.705896,0,10,,0,9.53125,0,14.5098039215686,77,0,39.776,,179.6,98.6,12.5,0,6.25,9.375,
100,2024-06-19,04:57:51.50145,5.97327,0,18.5,0,-12.5,-12.5,7.6171875,9.375,,0,,9.375,40,0,3515.625,15.2289627,3.0875808,-12.1413819,0,1.705896,0,10,,0,9.53125,0,14.5098039215686,77,0,39.776,,179.6,98.6,12.5,0,9.375,9.375,
101,2024-06-19,04:57:51.56391,6.02819,0,18.5,0,-12.5,-12.5,7.6171875,9.375,,0,,9.375,40,0,3507.8125,15.2289627,3.0875808,-12.1413819,0,1.66668,0,10,,0,9.53125,0,14.1176470588235,77,0,39.776,,179.6,98.6,12.5,0,9.375,9.375,
102,2024-06-19,04:57:51.61079,6.07163,0,18.5,0,-12.5,-12.5,7.6171875,9.375,,0,,9.375,40,0,3500,15.2289627,3.0875808,-12.1413819,0,1.66668,0,10,,0,9.6875,0.15625,14.1176470588235,77,0,38.533,,179.6,100.4,12.5,0,9.375,9.375,
103,2024-06-19,04:57:51.65766,6.12889,0,18.5,0,-12.5,-12.5,7.6171875,9.375,,0,,9.375,40,0,3492.1875,15.2289627,3.0875808,-12.1413819,0,1.627464,0,10,,0,9.6875,0.15625,14.1176470588235,77,0,38.533,,179.6,100.4,12.5,0,7.8125,9.375,